sat.trackr.live / text

‹ back to catalog

ONEWEB-0006

NORAD 44061 · 2019-010E

PAYLOAD ACTIVE UNKNOWN

§ Identity

Operator
Country
UK
Launch date
2019-02-27
Launch site
FRGUI
Launch vehicle
Mass (kg)
RCS (m²)

Purposes: comms

External: N2YO · Heavens-Above · Gunter

§ Orbital elements

Epoch: 2026-09-19T17:31:23.625984Z

Period
109.46 min
Inclination
87.8995°
Eccentricity
0.0001869
Mean motion
13.15547255 rev/d
Perigee alt
1,200.4 km
Apogee alt
1,203.2 km
Semi-major
7,579.9 km
B*
-2.4458e-4
RAAN
240.3411°
Arg perigee
82.7324°
Mean anomaly
277.4019°
Rev number
36,385

§ Raw data

ONEWEB-00061 44061U 19010E   26262.73013456 -.00000079  00000+0 -24458-3 0  99962 44061  87.8995 240.3411 0001869  82.7324 277.4019 13.15547255363851

JSON: /api/v1/satellites/44061 · /tle

For live sub-satellite position, see the globe view (requires WebGL).

§ Visibility from observer

Set your observer location to see the next 7 days of passes ≥ 10°. The values pass through the URL so the page stays shareable.

No JS? Fill the form by hand. The geolocation button needs JavaScript.